User: anonymous   Login
Location: Carter Cabin
(41.0271°N, 122.9339°W)
Time: 03:26:59
(UTC+00:00)
Language:

CRYOSAT 2 - Orbit

View from above orbital plane
View from above orbital plane
View from above satellite
View from above satellite

Ground track
Ground track

The orbit data is extracted from the following two-line orbital elements,

1 36508U 10013A   24164.87674723  .00000424  00000-0  10463-3 0  9995
2 36508  92.0343  99.9777 0001405   3.7623 356.3595 14.51906374751531
Epoch (UTC): 12 June 2024 21:02:30
Eccentricity: 0.0001405
inclination: 92.0343°
perigee height: 718 km
apogee height: 720 km
right ascension of ascending node: 99.9777°
argument of perigee: 3.7623°
revolutions per day: 14.51906374
mean anomaly at epoch: 356.3595°
orbit number at epoch: 75153

The dashed part of the orbit path shows where the satellite is in the earth's shadow,  

DLR